STARLINK-36888, 68004

Orbit data source: Space-Track

STARLINK-36888, 68004 is a payload satellite owned by SpaceX/Seattle (US) in LEO that was launched on Fri, 27 Feb 2026 UTC via an FALCON 9 launch vehicle from the Air Force Eastern Test Range (AFETR). Payload-class satellites include a variety of spacecraft equipped with specific instruments for various scientific and technological missions. These include communications satellites like Starlink; space stations such as the ISS; scientific satellites like the Hubble; Earth observation satellites from companies like Planet Labs, Umbra, and HawkEye 360; GPS; miniature CubeSats for education and research; and military/defense satellites.

Loading next visibility...
Identifier
68004, 2026-039U
Orbit
LEO
Country
Flag of USUS
Related business
Manufacturer
SpaceX/Seattle
Mission
Operational Commercial Communications
Bus & Motor
STARLINK V2MO, Unknown motor
Mass
575 kg wet, ~530 kg dry
Launch date (UTC)
2026-02-27 (2 months ago)
Launch vehicle
FALCON 9
Launch site
Air Force Eastern Test Range (AFETR)
Object type
Payload
Rocket body
Debris
Shape & HBR
Box + 2 Pan, 17.7 m
Radar Cross Section
36.964 m²

Expand to show TLE details & history
Last TLE update: 13 hours ago

TLE from 13 hours ago
0 STARLINK-36888
1 68004U 26039U   26119.06523410  .00019734  00000-0  72501-3 0  9990
2 68004  42.9994 124.7872 0000845 262.5285  97.5471 15.27566271  9403
Epoch: 2026-04-29T01:33Z
TLE epoch observation values (Epoch: 2026-04-29T01:33:56.226Z)
Latitude
0.00002°
Longitude
-115.7286°
Altitude
482.942 km
Speed
7.626 km/s
True Right ascension
08h 19m 08s
True Declination
0° 00' 00"
Sunlit
Object was in daylight at epoch
Visualization orbit readout
Latitude
Unknown
Longitude
Unknown
Altitude
Unknown
Speed
Unknown
Apparent Right ascension
Unknown
Apparent Declination
Unknown
Sunlit
N/A
Visualization observer readout
Local Sidereal Time
21:53:23
Azimuth
Unknown
Elevation
Unknown
Doppler factor
Unknown
Orbital elements
Apogee altitude
485.615 km
Perigee altitude
484.456 km
Semi-major axis
6,863.172 km
Eccentricity
0.00008
Inclination
42.9994°
RAAN
124.7872°
Arg. of periapsis
262.5285°
True anomaly
97.5567°
Mean anomaly
97.5471°
Eccentric anomaly
97.5519°
Mean motion
3.8173 °/min
Orbital period
94.31 mins
BSTAR
0.00072501
Loading maneuver chart data...
Computing Atmospheric mass density...
Loading historical data...
Loading historical data...
Loading historical data...
Loading historical data...
Loading historical data...
Loading historical data...
Loading historical data...

Documentation

Showing up to 5 results
|